Regional Weather Roundup
Issued by NWS Bismarck, ND

Home | Current Version | Previous Version | Text Only | Print | Product List | Glossary On
Versions: 1 2 3 4 5 6 7 8 9 10 11 12 13 14 15 16 17 18 19 20 21 22 23 24 25 26 27 28 29 30 31 32 33 34 35 36 37 38 39 40 41 42 43 44 45 46 47 48 49 50
243
ASUS43 KBIS 170510
RWRBIS

NWR BROADCAST TEXT
NATIONAL WEATHER SERVICE BISMARCK ND
1100 PM CST MON JAN 16 2017

NOTE: "FAIR" INDICATES FEW OR NO CLOUDS BELOW 12,000 FEET WITH NO
SIGNIFICANT WEATHER AND/OR OBSTRUCTIONS TO VISIBILITY.


CITY           SKY/WX    TMP DP  RH WIND       PRES   REMARKS
WILLISTON      FAIR       9   7  92 SW3       30.03F
MINOT          FAIR      18  13  80 SW16      30.00F WCI   3
MINOT AFB      NOT AVBL
BISMARCK       FAIR       9   6  88 NW8       30.07F WCI  -3
DICKINSON      FAIR      12   8  84 W5        30.02S WCI   4
GARRISON         N/A     16  11  80 CALM      30.04F
HETTINGER ARPT FAIR      11   7  84 NW9       30.07R WCI  -2
JAMESTOWN      FAIR      11   9  92 W6        30.00F WCI   1
CARRINGTON     FAIR      10   9  92 W12       30.02F WCI  -4
HAZEN            N/A    N/A N/A N/A SW5       30.08S
MANDAN         FAIR      12  10  92 W5        30.06R WCI   4
RUGBY            N/A      3   1  92 W9        30.02R WCI -11
STANLEY        FAIR      16  14  93 W10       30.01F WCI   3
TIOGA          FAIR      12  12 100 SW6       30.01F WCI   3
WATFORD CITY   FAIR       7   5  92 CALM      30.04F
$$

CITY           SKY/WX    TMP DP  RH WIND       PRES   REMARKS
GRAND FORKS    FAIR       4  -1  80 SW6       30.02S WCI  -7
GRAND FORKS AF FAIR       4  -1  81 W6        30.02S WCI  -7
DEVILS LAKE    FAIR       5   3  91 W8        29.99F WCI  -8
FARGO          FAIR       6   4  91 SW5       30.03S WCI  -3
CAVALIER         N/A      1   0  92 SE5       30.00F WCI  -8
GRAFTON        FAIR       5   1  85 SW5       30.04S WCI  -4
GWINNER        FAIR      10   7  85 W9        30.02F WCI  -2
ROLLA            N/A    N/A N/A N/A MISG        N/A
$$

CITY           SKY/WX    TMP DP  RH WIND       PRES   REMARKS
ABERDEEN       FAIR       2  -2  83 CALM      30.05S
MOBRIDGE       FAIR      14   8  77 N8        30.03F WCI   3
BUFFALO          N/A     17   8  67 W8        29.98F WCI   7
RAPID CITY     FAIR      16   8  71 CALM      30.06F
GLASGOW        FAIR      10   6  84 SE12      29.94F WCI  -5
SIDNEY         FAIR      11   7  84 S7        30.04F WCI   0
WOLF POINT     FAIR       3  -2  79 NE3       30.00F
GLENDIVE       FAIR       8   4  83 S14       30.03F WCI  -8
MILES CITY     FAIR      11   3  70 S13       30.04F WCI  -4
BAKER          FAIR       6   1  80 CALM      30.05F
$$

CITY           SKY/WX    TMP DP  RH WIND       PRES   REMARKS
BILLINGS       FAIR      22   6  50 SW25G33   30.00F WCI   5
GREAT FALLS    FAIR      31  18  58 SW23      29.92F WCI  18
REGINA         PTCLDY    12   9  85 SE12      29.87F WCI  -2
ESTEVAN        PTCLDY    14   9  79 SW13      29.97F WCI   0
$$





USA.gov is the U.S. government's official web portal to all federal, state and local government web resources and services.